TimeEDT,TemperatureF,Dew PointF,Humidity,Sea Level PressureIn,VisibilityMPH,Wind Direction,Wind SpeedMPH,Gust SpeedMPH,PrecipitationIn,Events,Conditions,WindDirDegrees,DateUTC
12:54 AM,19.0,1.9,47,30.32,10.0,Calm,Calm,-,N/A,,Clear,0,2013-03-18 04:54:00
1:54 AM,16.0,3.0,57,30.34,10.0,WNW,3.5,-,N/A,,Clear,290,2013-03-18 05:54:00
2:54 AM,15.1,1.9,56,30.35,10.0,Calm,Calm,-,N/A,,Clear,0,2013-03-18 06:54:00
3:54 AM,12.9,1.0,59,30.35,10.0,Calm,Calm,-,N/A,,Clear,0,2013-03-18 07:54:00
4:54 AM,12.0,1.9,64,30.37,10.0,Calm,Calm,-,N/A,,Clear,0,2013-03-18 08:54:00
5:54 AM,12.0,3.0,67,30.38,10.0,Calm,Calm,-,N/A,,Clear,0,2013-03-18 09:54:00
6:54 AM,10.9,3.0,70,30.41,10.0,Calm,Calm,-,N/A,,Clear,0,2013-03-18 10:54:00
7:54 AM,14.0,3.9,64,30.43,10.0,North,3.5,-,N/A,,Clear,10,2013-03-18 11:54:00
8:54 AM,17.1,7.0,65,30.42,10.0,NE,3.5,-,N/A,,Clear,40,2013-03-18 12:54:00
9:54 AM,21.0,1.0,42,30.39,10.0,Variable,3.5,-,N/A,,Clear,0,2013-03-18 13:54:00
10:54 AM,26.1,-0.0,32,30.37,10.0,NNE,3.5,-,N/A,,Clear,20,2013-03-18 14:54:00
11:54 AM,30.0,-2.0,25,30.34,10.0,Variable,3.5,-,N/A,,Clear,0,2013-03-18 15:54:00
12:54 PM,30.9,-4.0,22,30.33,10.0,Variable,3.5,-,N/A,,Clear,0,2013-03-18 16:54:00
1:54 PM,33.1,1.0,26,30.30,10.0,SE,8.1,-,N/A,,Clear,130,2013-03-18 17:54:00
2:54 PM,34.0,1.0,25,30.28,10.0,SSE,6.9,-,N/A,,Clear,160,2013-03-18 18:54:00
3:54 PM,34.0,1.9,26,30.24,10.0,SSE,8.1,-,N/A,,Clear,150,2013-03-18 19:54:00
4:54 PM,32.0,1.9,28,30.25,10.0,ESE,8.1,-,N/A,,Mostly Cloudy,120,2013-03-18 20:54:00
5:54 PM,30.9,1.9,29,30.22,10.0,ESE,8.1,-,N/A,,Overcast,110,2013-03-18 21:54:00
6:54 PM,30.0,8.1,40,30.22,9.0,SE,15.0,18.4,N/A,,Overcast,130,2013-03-18 22:54:00
7:16 PM,28.4,14.0,55,30.14,3.0,Variable,5.8,17.3,0.00,Snow,Light Snow,0,2013-03-18 23:16:00
7:25 PM,26.6,17.6,69,30.14,1.8,ESE,11.5,18.4,0.00,Snow,Light Snow,120,2013-03-18 23:25:00
7:38 PM,24.8,19.4,80,30.13,1.0,East,5.8,16.1,0.00,Snow,Light Snow,100,2013-03-18 23:38:00
7:54 PM,26.1,21.0,81,30.19,1.8,East,3.5,-,0.00,Snow,Light Snow,100,2013-03-18 23:54:00
8:14 PM,24.8,21.2,86,30.12,2.0,SE,9.2,-,0.00,Snow,Light Snow,130,2013-03-19 00:14:00
8:46 PM,26.6,19.4,74,30.13,1.8,ESE,8.1,-,0.01,Snow,Light Snow,120,2013-03-19 00:46:00
8:54 PM,25.0,21.0,85,30.19,2.0,East,5.8,-,0.01,Snow,Light Snow,100,2013-03-19 00:54:00
9:03 PM,24.8,21.2,86,30.12,1.5,ESE,8.1,-,0.00,Snow,Light Snow,120,2013-03-19 01:03:00
9:34 PM,24.8,21.2,86,30.11,2.5,Variable,4.6,-,0.00,Snow,Light Snow,0,2013-03-19 01:34:00
9:54 PM,25.0,21.0,85,30.16,1.2,ESE,6.9,-,0.01,Snow,Light Snow,110,2013-03-19 01:54:00
10:18 PM,24.8,21.2,86,30.10,2.5,East,6.9,-,0.01,Snow,Light Snow,100,2013-03-19 02:18:00
10:30 PM,24.8,19.4,80,30.10,1.2,East,8.1,18.4,0.01,Snow,Light Snow,90,2013-03-19 02:30:00
10:54 PM,24.1,21.0,88,30.14,1.2,East,5.8,-,0.03,Snow,Light Snow,90,2013-03-19 02:54:00
11:38 PM,24.8,21.2,86,30.06,1.0,Variable,4.6,-,0.02,Snow,Light Snow,0,2013-03-19 03:38:00
11:54 PM,24.1,21.9,91,30.09,1.2,ENE,8.1,-,0.03,Snow,Light Snow,70,2013-03-19 03:54:00